owner,sensor,date,latitude,longitude,air_pressure(mBar),qcFlag 
TABS,ioos:station:wmo:42047:1,2013-04-01T00:00:00Z,27.8966,-93.5973,1014.34,11111222 
TABS,ioos:station:wmo:42047:1,2013-04-01T00:30:00Z,27.8966,-93.5973,1014.33,11111222 
TABS,ioos:station:wmo:42047:1,2013-04-01T01:00:00Z,27.8966,-93.5973,1014.75,11111222 
TABS,ioos:station:wmo:42047:1,2013-04-01T01:30:00Z,27.8966,-93.5973,1015.19,11111222 
TABS,ioos:station:wmo:42047:1,2013-04-01T02:00:00Z,27.8966,-93.5973,1015.25,11111222 
TABS,ioos:station:wmo:42047:1,2013-04-01T02:30:00Z,27.8966,-93.5973,1015.5,11111222 
TABS,ioos:station:wmo:42047:1,2013-04-01T03:00:00Z,27.8966,-93.5973,1016.29,11111222 
TABS,ioos:station:wmo:42047:1,2013-04-01T03:30:00Z,27.8966,-93.5973,1016.14,11111222 
TABS,ioos:station:wmo:42047:1,2013-04-01T04:00:00Z,27.8966,-93.5973,1015.74,11111222 
TABS,ioos:station:wmo:42047:1,2013-04-01T04:30:00Z,27.8966,-93.5973,1015.38,11111222 
TABS,ioos:station:wmo:42047:1,2013-04-01T05:00:00Z,27.8966,-93.5973,1014.84,11111222 
TABS,ioos:station:wmo:42047:1,2013-04-01T05:30:00Z,27.8966,-93.5973,1014.16,11111222 
TABS,ioos:station:wmo:42047:1,2013-04-01T06:00:00Z,27.8966,-93.5973,1013.38,11111222 
TABS,ioos:station:wmo:42047:1,2013-04-01T06:30:00Z,27.8966,-93.5973,1012.94,11111222 
TABS,ioos:station:wmo:42047:1,2013-04-01T07:00:00Z,27.8966,-93.5973,1012.82,11111222 
TABS,ioos:station:wmo:42047:1,2013-04-01T07:30:00Z,27.8966,-93.5973,1012.68,11111222 
TABS,ioos:station:wmo:42047:1,2013-04-01T08:00:00Z,27.8966,-93.5973,1013.0,11111222 
TABS,ioos:station:wmo:42047:1,2013-04-01T08:30:00Z,27.8966,-93.5973,1013.11,11111222 
TABS,ioos:station:wmo:42047:1,2013-04-01T09:00:00Z,27.8966,-93.5973,1013.39,11111222 
TABS,ioos:station:wmo:42047:1,2013-04-01T09:30:00Z,27.8966,-93.5973,1013.48,11111222 
TABS,ioos:station:wmo:42047:1,2013-04-01T10:00:00Z,27.8966,-93.5973,1013.9,11111222 
TABS,ioos:station:wmo:42047:1,2013-04-01T10:30:00Z,27.8966,-93.5973,1014.44,11111222 
TABS,ioos:station:wmo:42047:1,2013-04-01T11:00:00Z,27.8966,-93.5973,1014.67,11111222 
TABS,ioos:station:wmo:42047:1,2013-04-01T11:30:00Z,27.8966,-93.5973,1015.46,11111222 
TABS,ioos:station:wmo:42047:1,2013-04-01T12:00:00Z,27.8966,-93.5973,1015.85,11111222 
TABS,ioos:station:wmo:42047:1,2013-04-01T12:30:00Z,27.8966,-93.5973,1016.8,11111222 
TABS,ioos:station:wmo:42047:1,2013-04-01T13:00:00Z,27.8966,-93.5973,1017.21,11111222 
TABS,ioos:station:wmo:42047:1,2013-04-01T13:30:00Z,27.8966,-93.5973,1017.84,11111222 
TABS,ioos:station:wmo:42047:1,2013-04-01T14:00:00Z,27.8966,-93.5973,1017.82,11111222 
TABS,ioos:station:wmo:42047:1,2013-04-01T14:30:00Z,27.8966,-93.5973,1017.98,11111222 
TABS,ioos:station:wmo:42047:1,2013-04-01T15:00:00Z,27.8966,-93.5973,1017.97,11111222 
TABS,ioos:station:wmo:42047:1,2013-04-01T15:30:00Z,27.8966,-93.5973,1018.11,11111222 
TABS,ioos:station:wmo:42047:1,2013-04-01T16:00:00Z,27.8966,-93.5973,1018.22,11111222 
TABS,ioos:station:wmo:42047:1,2013-04-01T16:30:00Z,27.8966,-93.5973,1018.14,11111222 
TABS,ioos:station:wmo:42047:1,2013-04-01T17:00:00Z,27.8966,-93.5973,1018.0,11111222 
TABS,ioos:station:wmo:42047:1,2013-04-01T17:30:00Z,27.8966,-93.5973,1017.97,11111222 
TABS,ioos:station:wmo:42047:1,2013-04-01T18:00:00Z,27.8966,-93.5973,1017.77,11111222 
TABS,ioos:station:wmo:42047:1,2013-04-01T18:30:00Z,27.8966,-93.5973,1017.22,11111222 
TABS,ioos:station:wmo:42047:1,2013-04-01T19:00:00Z,27.8966,-93.5973,1017.07,11111222 
TABS,ioos:station:wmo:42047:1,2013-04-01T19:30:00Z,27.8966,-93.5973,1016.8,11111222 
TABS,ioos:station:wmo:42047:1,2013-04-01T20:00:00Z,27.8966,-93.5973,1016.54,11111222 
TABS,ioos:station:wmo:42047:1,2013-04-01T20:30:00Z,27.8966,-93.5973,1016.4,11111222 
TABS,ioos:station:wmo:42047:1,2013-04-01T21:00:00Z,27.8966,-93.5973,1015.97,11111222 
TABS,ioos:station:wmo:42047:1,2013-04-01T21:30:00Z,27.8966,-93.5973,1015.71,11111222 
TABS,ioos:station:wmo:42047:1,2013-04-01T22:00:00Z,27.8966,-93.5973,1015.6,11111222 
TABS,ioos:station:wmo:42047:1,2013-04-01T22:30:00Z,27.8966,-93.5973,1015.6,11111222 
TABS,ioos:station:wmo:42047:1,2013-04-01T23:00:00Z,27.8966,-93.5973,1015.6,11111222 
TABS,ioos:station:wmo:42047:1,2013-04-01T23:30:00Z,27.8966,-93.5973,1015.61,11111222 
TABS,ioos:station:wmo:42047:1,2013-04-02T11:00:00Z,27.8966,-93.5973,1015.52,1111122 
TABS,ioos:station:wmo:42047:1,2013-04-02T11:30:00Z,27.8966,-93.5973,1015.59,1111122 
TABS,ioos:station:wmo:42047:1,2013-04-02T12:00:00Z,27.8966,-93.5973,1015.3,1111122 
TABS,ioos:station:wmo:42047:1,2013-04-02T12:30:00Z,27.8966,-93.5973,1015.92,1111122 
TABS,ioos:station:wmo:42047:1,2013-04-02T13:00:00Z,27.8966,-93.5973,1016.19,1111122 
TABS,ioos:station:wmo:42047:1,2013-04-02T13:30:00Z,27.8966,-93.5973,1016.69,1111122 
TABS,ioos:station:wmo:42047:1,2013-04-02T14:00:00Z,27.8966,-93.5973,1016.31,1111122 
TABS,ioos:station:wmo:42047:1,2013-04-02T14:30:00Z,27.8966,-93.5973,1015.41,1111122 
TABS,ioos:station:wmo:42047:1,2013-04-02T15:00:00Z,27.8966,-93.5973,1015.08,1111122 
TABS,ioos:station:wmo:42047:1,2013-04-02T15:30:00Z,27.8966,-93.5973,1015.65,1111122 
TABS,ioos:station:wmo:42047:1,2013-04-02T16:00:00Z,27.8966,-93.5973,1015.56,1111122 
TABS,ioos:station:wmo:42047:1,2013-04-02T16:30:00Z,27.8966,-93.5973,1015.16,1111122 
TABS,ioos:station:wmo:42047:1,2013-04-02T17:00:00Z,27.8966,-93.5973,1015.15,1111122 
TABS,ioos:station:wmo:42047:1,2013-04-02T17:30:00Z,27.8966,-93.5973,1014.36,1111122 
TABS,ioos:station:wmo:42047:1,2013-04-02T18:00:00Z,27.8966,-93.5973,1014.44,1111122 
TABS,ioos:station:wmo:42047:1,2013-04-02T18:30:00Z,27.8966,-93.5973,1014.27,1111122 
TABS,ioos:station:wmo:42047:1,2013-04-02T19:00:00Z,27.8966,-93.5973,1014.25,1111122 
TABS,ioos:station:wmo:42047:1,2013-04-02T19:30:00Z,27.8966,-93.5973,1013.49,1111122 
TABS,ioos:station:wmo:42047:1,2013-04-02T20:00:00Z,27.8966,-93.5973,1011.42,1111122 
TABS,ioos:station:wmo:42047:1,2013-04-02T20:30:00Z,27.8966,-93.5973,1010.29,1111122 
TABS,ioos:station:wmo:42047:1,2013-04-02T21:00:00Z,27.8966,-93.5973,1010.87,1111122 
TABS,ioos:station:wmo:42047:1,2013-04-02T21:30:00Z,27.8966,-93.5973,1011.5,1111122 
TABS,ioos:station:wmo:42047:1,2013-04-02T22:00:00Z,27.8966,-93.5973,1011.84,1111122 
TABS,ioos:station:wmo:42047:1,2013-04-02T22:30:00Z,27.8966,-93.5973,1011.59,1111122 
TABS,ioos:station:wmo:42047:1,2013-04-02T23:00:00Z,27.8966,-93.5973,1011.24,1111122 
TABS,ioos:station:wmo:42047:1,2013-04-02T23:30:00Z,27.8966,-93.5973,1011.32,1111122 
TABS,ioos:station:wmo:42047:1,2013-04-03T00:00:00Z,27.8966,-93.5973,1010.97,11111222 
TABS,ioos:station:wmo:42047:1,2013-04-03T00:30:00Z,27.8966,-93.5973,1009.53,11111222 
TABS,ioos:station:wmo:42047:1,2013-04-03T01:00:00Z,27.8966,-93.5973,1010.42,11111222 
TABS,ioos:station:wmo:42047:1,2013-04-03T01:30:00Z,27.8966,-93.5973,1011.05,11111222 
TABS,ioos:station:wmo:42047:1,2013-04-03T02:00:00Z,27.8966,-93.5973,1011.22,11111222 
TABS,ioos:station:wmo:42047:1,2013-04-03T02:30:00Z,27.8966,-93.5973,1011.31,11111222 
TABS,ioos:station:wmo:42047:1,2013-04-03T03:00:00Z,27.8966,-93.5973,1011.48,11111222 
TABS,ioos:station:wmo:42047:1,2013-04-03T03:30:00Z,27.8966,-93.5973,1010.71,11111222 
TABS,ioos:station:wmo:42047:1,2013-04-03T04:00:00Z,27.8966,-93.5973,1010.48,11111222 
TABS,ioos:station:wmo:42047:1,2013-04-03T04:30:00Z,27.8966,-93.5973,1010.54,11111222 
TABS,ioos:station:wmo:42047:1,2013-04-03T05:00:00Z,27.8966,-93.5973,1010.37,11111222 
TABS,ioos:station:wmo:42047:1,2013-04-03T05:30:00Z,27.8966,-93.5973,1009.52,11111222 
TABS,ioos:station:wmo:42047:1,2013-04-03T06:00:00Z,27.8966,-93.5973,1009.13,11111222 
TABS,ioos:station:wmo:42047:1,2013-04-03T06:30:00Z,27.8966,-93.5973,1008.89,11111222 
TABS,ioos:station:wmo:42047:1,2013-04-03T07:00:00Z,27.8966,-93.5973,1008.74,11111222 
TABS,ioos:station:wmo:42047:1,2013-04-03T07:30:00Z,27.8966,-93.5973,1007.46,11111222 
TABS,ioos:station:wmo:42047:1,2013-04-03T08:00:00Z,27.8966,-93.5973,1008.34,11111222 
TABS,ioos:station:wmo:42047:1,2013-04-03T08:30:00Z,27.8966,-93.5973,1009.3,11111222 
TABS,ioos:station:wmo:42047:1,2013-04-03T09:00:00Z,27.8966,-93.5973,1009.23,11111222 
TABS,ioos:station:wmo:42047:1,2013-04-03T09:30:00Z,27.8966,-93.5973,1008.72,11111222 
TABS,ioos:station:wmo:42047:1,2013-04-03T10:00:00Z,27.8966,-93.5973,1007.68,11111222 
TABS,ioos:station:wmo:42047:1,2013-04-03T10:30:00Z,27.8966,-93.5973,1010.4,11111222 
TABS,ioos:station:wmo:42047:1,2013-04-03T11:00:00Z,27.8966,-93.5973,1010.45,11111222 
TABS,ioos:station:wmo:42047:1,2013-04-03T11:30:00Z,27.8966,-93.5973,1010.92,11111222 
TABS,ioos:station:wmo:42047:1,2013-04-03T12:00:00Z,27.8966,-93.5973,1009.9,11111222 
TABS,ioos:station:wmo:42047:1,2013-04-03T12:30:00Z,27.8966,-93.5973,1010.41,11111222 
TABS,ioos:station:wmo:42047:1,2013-04-03T13:00:00Z,27.8966,-93.5973,1009.21,11111222 
TABS,ioos:station:wmo:42047:1,2013-04-03T13:30:00Z,27.8966,-93.5973,1009.71,11111222 
TABS,ioos:station:wmo:42047:1,2013-04-03T14:00:00Z,27.8966,-93.5973,1010.61,11111222 
TABS,ioos:station:wmo:42047:1,2013-04-03T14:30:00Z,27.8966,-93.5973,1010.16,11111222 
TABS,ioos:station:wmo:42047:1,2013-04-03T15:00:00Z,27.8966,-93.5973,1010.5,11111222 
TABS,ioos:station:wmo:42047:1,2013-04-03T15:30:00Z,27.8966,-93.5973,1010.52,11111222 
TABS,ioos:station:wmo:42047:1,2013-04-03T16:00:00Z,27.8966,-93.5973,1010.69,11111222 
TABS,ioos:station:wmo:42047:1,2013-04-03T16:30:00Z,27.8966,-93.5973,1010.73,11111222 
TABS,ioos:station:wmo:42047:1,2013-04-03T17:00:00Z,27.8966,-93.5973,1011.29,11111222 
TABS,ioos:station:wmo:42047:1,2013-04-03T17:30:00Z,27.8966,-93.5973,1011.85,11111222 
TABS,ioos:station:wmo:42047:1,2013-04-03T18:00:00Z,27.8966,-93.5973,1011.71,11111222 
TABS,ioos:station:wmo:42047:1,2013-04-03T18:30:00Z,27.8966,-93.5973,1011.35,11111222 
TABS,ioos:station:wmo:42047:1,2013-04-03T19:00:00Z,27.8966,-93.5973,1010.97,11111222 
TABS,ioos:station:wmo:42047:1,2013-04-03T19:30:00Z,27.8966,-93.5973,1010.49,11111222 
TABS,ioos:station:wmo:42047:1,2013-04-03T20:00:00Z,27.8966,-93.5973,1010.36,11111222 
TABS,ioos:station:wmo:42047:1,2013-04-03T20:30:00Z,27.8966,-93.5973,1010.33,11111222 
TABS,ioos:station:wmo:42047:1,2013-04-03T21:00:00Z,27.8966,-93.5973,1010.67,11111222 
TABS,ioos:station:wmo:42047:1,2013-04-03T21:30:00Z,27.8966,-93.5973,1011.06,11111222 
TABS,ioos:station:wmo:42047:1,2013-04-03T22:00:00Z,27.8966,-93.5973,1010.83,11111222 
TABS,ioos:station:wmo:42047:1,2013-04-03T22:30:00Z,27.8966,-93.5973,1011.2,11111222 
TABS,ioos:station:wmo:42047:1,2013-04-03T23:00:00Z,27.8966,-93.5973,1011.98,11111222 
TABS,ioos:station:wmo:42047:1,2013-04-03T23:30:00Z,27.8966,-93.5973,1012.07,11111222 
TABS,ioos:station:wmo:42047:1,2013-04-04T00:00:00Z,27.8966,-93.5973,1012.36,11111222 
TABS,ioos:station:wmo:42047:1,2013-04-04T00:30:00Z,27.8966,-93.5973,1013.14,11111222 
TABS,ioos:station:wmo:42047:1,2013-04-04T01:00:00Z,27.8966,-93.5973,1013.65,11111222 
TABS,ioos:station:wmo:42047:1,2013-04-04T01:30:00Z,27.8966,-93.5973,1013.79,11111222 
TABS,ioos:station:wmo:42047:1,2013-04-04T02:00:00Z,27.8966,-93.5973,1014.19,11111222 
TABS,ioos:station:wmo:42047:1,2013-04-04T02:30:00Z,27.8966,-93.5973,1014.69,11111222 
TABS,ioos:station:wmo:42047:1,2013-04-04T03:00:00Z,27.8966,-93.5973,1015.21,11111222 
TABS,ioos:station:wmo:42047:1,2013-04-04T03:30:00Z,27.8966,-93.5973,1015.64,11111222 
TABS,ioos:station:wmo:42047:1,2013-04-04T04:00:00Z,27.8966,-93.5973,1015.39,11111222 
TABS,ioos:station:wmo:42047:1,2013-04-04T04:30:00Z,27.8966,-93.5973,1015.56,11111222 
TABS,ioos:station:wmo:42047:1,2013-04-04T05:00:00Z,27.8966,-93.5973,1015.62,11111222 
TABS,ioos:station:wmo:42047:1,2013-04-04T05:30:00Z,27.8966,-93.5973,1015.65,11111222 
TABS,ioos:station:wmo:42047:1,2013-04-04T06:00:00Z,27.8966,-93.5973,1015.62,11111222 
TABS,ioos:station:wmo:42047:1,2013-04-04T06:30:00Z,27.8966,-93.5973,1015.76,11111222 
TABS,ioos:station:wmo:42047:1,2013-04-04T07:00:00Z,27.8966,-93.5973,1015.79,11111222 
TABS,ioos:station:wmo:42047:1,2013-04-04T07:30:00Z,27.8966,-93.5973,1015.84,11111222 
TABS,ioos:station:wmo:42047:1,2013-04-04T08:00:00Z,27.8966,-93.5973,1015.94,11111222 
TABS,ioos:station:wmo:42047:1,2013-04-04T08:30:00Z,27.8966,-93.5973,1015.67,11111222 
TABS,ioos:station:wmo:42047:1,2013-04-04T09:00:00Z,27.8966,-93.5973,1015.76,11111222 
TABS,ioos:station:wmo:42047:1,2013-04-04T09:30:00Z,27.8966,-93.5973,1015.48,11111222 
TABS,ioos:station:wmo:42047:1,2013-04-04T10:00:00Z,27.8966,-93.5973,1015.27,11111222 
TABS,ioos:station:wmo:42047:1,2013-04-04T10:30:00Z,27.8966,-93.5973,1015.79,11111222 
TABS,ioos:station:wmo:42047:1,2013-04-04T11:00:00Z,27.8966,-93.5973,1015.94,11111222 
TABS,ioos:station:wmo:42047:1,2013-04-04T11:30:00Z,27.8966,-93.5973,1016.08,11111222 
TABS,ioos:station:wmo:42047:1,2013-04-04T12:00:00Z,27.8966,-93.5973,1016.56,11111222 
TABS,ioos:station:wmo:42047:1,2013-04-04T12:30:00Z,27.8966,-93.5973,1017.64,11111222 
TABS,ioos:station:wmo:42047:1,2013-04-04T13:00:00Z,27.8966,-93.5973,1017.97,11111222 
TABS,ioos:station:wmo:42047:1,2013-04-04T13:30:00Z,27.8966,-93.5973,1018.0,11111222 
TABS,ioos:station:wmo:42047:1,2013-04-04T14:00:00Z,27.8966,-93.5973,1018.11,11111222 
TABS,ioos:station:wmo:42047:1,2013-04-04T14:30:00Z,27.8966,-93.5973,1018.17,11111222 
TABS,ioos:station:wmo:42047:1,2013-04-04T15:00:00Z,27.8966,-93.5973,1018.84,11111222 
TABS,ioos:station:wmo:42047:1,2013-04-04T15:30:00Z,27.8966,-93.5973,1018.97,11111222 
TABS,ioos:station:wmo:42047:1,2013-04-04T16:00:00Z,27.8966,-93.5973,1018.97,11111222 
TABS,ioos:station:wmo:42047:1,2013-04-04T16:30:00Z,27.8966,-93.5973,1018.97,11111222 
TABS,ioos:station:wmo:42047:1,2013-04-04T17:00:00Z,27.8966,-93.5973,1018.71,11111222 
TABS,ioos:station:wmo:42047:1,2013-04-04T17:30:00Z,27.8966,-93.5973,1018.52,11111222 
TABS,ioos:station:wmo:42047:1,2013-04-04T18:00:00Z,27.8966,-93.5973,1018.17,11111222 
TABS,ioos:station:wmo:42047:1,2013-04-04T18:30:00Z,27.8966,-93.5973,1017.91,11111222 
TABS,ioos:station:wmo:42047:1,2013-04-04T19:00:00Z,27.8966,-93.5973,1017.38,11111222 
TABS,ioos:station:wmo:42047:1,2013-04-04T19:30:00Z,27.8966,-93.5973,1017.17,11111222 
TABS,ioos:station:wmo:42047:1,2013-04-04T20:00:00Z,27.8966,-93.5973,1017.02,11111222 
TABS,ioos:station:wmo:42047:1,2013-04-04T20:30:00Z,27.8966,-93.5973,1017.22,11111222 
TABS,ioos:station:wmo:42047:1,2013-04-04T21:00:00Z,27.8966,-93.5973,1016.8,11111222 
TABS,ioos:station:wmo:42047:1,2013-04-04T21:30:00Z,27.8966,-93.5973,1016.63,11111222 
TABS,ioos:station:wmo:42047:1,2013-04-04T22:00:00Z,27.8966,-93.5973,1016.9,11111222 
TABS,ioos:station:wmo:42047:1,2013-04-04T22:30:00Z,27.8966,-93.5973,1016.99,11111222 
TABS,ioos:station:wmo:42047:1,2013-04-04T23:00:00Z,27.8966,-93.5973,1017.24,11111222 
TABS,ioos:station:wmo:42047:1,2013-04-04T23:30:00Z,27.8966,-93.5973,1017.22,11111222 
TABS,ioos:station:wmo:42047:1,2013-04-05T00:00:00Z,27.8966,-93.5973,1017.22,11111222 
TABS,ioos:station:wmo:42047:1,2013-04-05T00:30:00Z,27.8966,-93.5973,1017.54,11111222 
TABS,ioos:station:wmo:42047:1,2013-04-05T01:00:00Z,27.8966,-93.5973,1017.73,11111222 
TABS,ioos:station:wmo:42047:1,2013-04-05T01:30:00Z,27.8966,-93.5973,1018.01,11111222 
TABS,ioos:station:wmo:42047:1,2013-04-05T02:00:00Z,27.8966,-93.5973,1018.22,11111222 
TABS,ioos:station:wmo:42047:1,2013-04-05T02:30:00Z,27.8966,-93.5973,1018.99,11111222 
TABS,ioos:station:wmo:42047:1,2013-04-05T03:00:00Z,27.8966,-93.5973,1019.09,11111222 
TABS,ioos:station:wmo:42047:1,2013-04-05T03:30:00Z,27.8966,-93.5973,1019.54,11111222 
TABS,ioos:station:wmo:42047:1,2013-04-05T04:00:00Z,27.8966,-93.5973,1019.58,11111222 
TABS,ioos:station:wmo:42047:1,2013-04-05T04:30:00Z,27.8966,-93.5973,1019.71,11111222 
TABS,ioos:station:wmo:42047:1,2013-04-05T05:00:00Z,27.8966,-93.5973,1019.83,11111222 
TABS,ioos:station:wmo:42047:1,2013-04-05T05:30:00Z,27.8966,-93.5973,1020.16,11111222 
TABS,ioos:station:wmo:42047:1,2013-04-05T06:00:00Z,27.8966,-93.5973,1020.1,11111222 
TABS,ioos:station:wmo:42047:1,2013-04-05T06:30:00Z,27.8966,-93.5973,1020.09,11111222 
TABS,ioos:station:wmo:42047:1,2013-04-05T07:00:00Z,27.8966,-93.5973,1020.24,11111222 
TABS,ioos:station:wmo:42047:1,2013-04-05T07:30:00Z,27.8966,-93.5973,1020.07,11111222 
TABS,ioos:station:wmo:42047:1,2013-04-05T08:00:00Z,27.8966,-93.5973,1020.38,11111222 
TABS,ioos:station:wmo:42047:1,2013-04-05T08:30:00Z,27.8966,-93.5973,1020.06,11111222 
TABS,ioos:station:wmo:42047:1,2013-04-05T09:00:00Z,27.8966,-93.5973,1020.38,11111222 
TABS,ioos:station:wmo:42047:1,2013-04-05T09:30:00Z,27.8966,-93.5973,1020.31,11111222 
TABS,ioos:station:wmo:42047:1,2013-04-05T10:00:00Z,27.8966,-93.5973,1020.42,11111222 
TABS,ioos:station:wmo:42047:1,2013-04-05T10:30:00Z,27.8966,-93.5973,1020.58,11111222 
TABS,ioos:station:wmo:42047:1,2013-04-05T11:00:00Z,27.8966,-93.5973,1020.55,11111222 
TABS,ioos:station:wmo:42047:1,2013-04-05T11:30:00Z,27.8966,-93.5973,1021.32,11111222 
TABS,ioos:station:wmo:42047:1,2013-04-05T12:00:00Z,27.8966,-93.5973,1021.54,11111222 
TABS,ioos:station:wmo:42047:1,2013-04-05T12:30:00Z,27.8966,-93.5973,1021.91,11111222 
TABS,ioos:station:wmo:42047:1,2013-04-05T13:00:00Z,27.8966,-93.5973,1022.49,11111222 
TABS,ioos:station:wmo:42047:1,2013-04-05T13:30:00Z,27.8966,-93.5973,1022.52,11111222 
TABS,ioos:station:wmo:42047:1,2013-04-05T14:00:00Z,27.8966,-93.5973,1022.87,11111222 
TABS,ioos:station:wmo:42047:1,2013-04-05T14:30:00Z,27.8966,-93.5973,1023.22,11111222 
TABS,ioos:station:wmo:42047:1,2013-04-05T15:00:00Z,27.8966,-93.5973,1023.4,11111222 
TABS,ioos:station:wmo:42047:1,2013-04-05T15:30:00Z,27.8966,-93.5973,1023.44,11111222 
TABS,ioos:station:wmo:42047:1,2013-04-05T16:00:00Z,27.8966,-93.5973,1023.64,11111222 
TABS,ioos:station:wmo:42047:1,2013-04-05T16:30:00Z,27.8966,-93.5973,1023.57,11111222 
TABS,ioos:station:wmo:42047:1,2013-04-05T17:00:00Z,27.8966,-93.5973,1023.56,11111222 
TABS,ioos:station:wmo:42047:1,2013-04-05T17:30:00Z,27.8966,-93.5973,1023.21,11111222 
TABS,ioos:station:wmo:42047:1,2013-04-05T18:00:00Z,27.8966,-93.5973,1022.59,11111222 
TABS,ioos:station:wmo:42047:1,2013-04-05T18:30:00Z,27.8966,-93.5973,1022.27,11111222 
TABS,ioos:station:wmo:42047:1,2013-04-05T19:00:00Z,27.8966,-93.5973,1021.72,11111222 
TABS,ioos:station:wmo:42047:1,2013-04-05T19:30:00Z,27.8966,-93.5973,1021.55,11111222 
TABS,ioos:station:wmo:42047:1,2013-04-05T20:00:00Z,27.8966,-93.5973,1021.43,11111222 
TABS,ioos:station:wmo:42047:1,2013-04-05T20:30:00Z,27.8966,-93.5973,1021.2,11111222 
TABS,ioos:station:wmo:42047:1,2013-04-05T21:00:00Z,27.8966,-93.5973,1021.06,11111222 
TABS,ioos:station:wmo:42047:1,2013-04-05T21:30:00Z,27.8966,-93.5973,1020.86,11111222 
TABS,ioos:station:wmo:42047:1,2013-04-05T22:00:00Z,27.8966,-93.5973,1020.41,11111222 
TABS,ioos:station:wmo:42047:1,2013-04-05T22:30:00Z,27.8966,-93.5973,1020.48,11111222 
TABS,ioos:station:wmo:42047:1,2013-04-05T23:00:00Z,27.8966,-93.5973,1020.3,11111222 
TABS,ioos:station:wmo:42047:1,2013-04-05T23:30:00Z,27.8966,-93.5973,1020.1,11111222 
TABS,ioos:station:wmo:42047:1,2013-04-06T00:00:00Z,27.8966,-93.5973,1020.1,11111222 
TABS,ioos:station:wmo:42047:1,2013-04-06T00:30:00Z,27.8966,-93.5973,1020.31,11111222 
TABS,ioos:station:wmo:42047:1,2013-04-06T01:00:00Z,27.8966,-93.5973,1020.65,11111222 
TABS,ioos:station:wmo:42047:1,2013-04-06T01:30:00Z,27.8966,-93.5973,1020.28,11111222 
TABS,ioos:station:wmo:42047:1,2013-04-06T02:00:00Z,27.8966,-93.5973,1020.2,11111222 
TABS,ioos:station:wmo:42047:1,2013-04-06T02:30:00Z,27.8966,-93.5973,1020.61,11111222 
TABS,ioos:station:wmo:42047:1,2013-04-06T03:00:00Z,27.8966,-93.5973,1020.56,11111222 
TABS,ioos:station:wmo:42047:1,2013-04-06T03:30:00Z,27.8966,-93.5973,1020.75,11111222 
TABS,ioos:station:wmo:42047:1,2013-04-06T04:00:00Z,27.8966,-93.5973,1020.97,11111222 
TABS,ioos:station:wmo:42047:1,2013-04-06T04:30:00Z,27.8966,-93.5973,1020.86,11111222 
TABS,ioos:station:wmo:42047:1,2013-04-06T05:00:00Z,27.8966,-93.5973,1020.76,11111222 
TABS,ioos:station:wmo:42047:1,2013-04-06T05:30:00Z,27.8966,-93.5973,1020.74,11111222 
TABS,ioos:station:wmo:42047:1,2013-04-06T06:00:00Z,27.8966,-93.5973,1020.5,11111222 
TABS,ioos:station:wmo:42047:1,2013-04-06T06:30:00Z,27.8966,-93.5973,1020.18,11111222 
TABS,ioos:station:wmo:42047:1,2013-04-06T07:00:00Z,27.8966,-93.5973,1020.07,11111222 
TABS,ioos:station:wmo:42047:1,2013-04-06T07:30:00Z,27.8966,-93.5973,1019.46,11111222 
TABS,ioos:station:wmo:42047:1,2013-04-06T08:00:00Z,27.8966,-93.5973,1019.43,11111222 
TABS,ioos:station:wmo:42047:1,2013-04-06T08:30:00Z,27.8966,-93.5973,1019.2,11111222 
TABS,ioos:station:wmo:42047:1,2013-04-06T09:00:00Z,27.8966,-93.5973,1018.71,11111222 
TABS,ioos:station:wmo:42047:1,2013-04-06T09:30:00Z,27.8966,-93.5973,1018.62,11111222 
TABS,ioos:station:wmo:42047:1,2013-04-06T10:00:00Z,27.8966,-93.5973,1018.62,11111222 
TABS,ioos:station:wmo:42047:1,2013-04-06T10:30:00Z,27.8966,-93.5973,1018.67,11111222 
TABS,ioos:station:wmo:42047:1,2013-04-06T11:00:00Z,27.8966,-93.5973,1018.89,11111222 
TABS,ioos:station:wmo:42047:1,2013-04-06T11:30:00Z,27.8966,-93.5973,1018.74,11111222 
TABS,ioos:station:wmo:42047:1,2013-04-06T12:00:00Z,27.8966,-93.5973,1018.93,11111222 
TABS,ioos:station:wmo:42047:1,2013-04-06T12:30:00Z,27.8966,-93.5973,1019.11,11111222 
TABS,ioos:station:wmo:42047:1,2013-04-06T13:00:00Z,27.8966,-93.5973,1018.89,11111222 
TABS,ioos:station:wmo:42047:1,2013-04-06T13:30:00Z,27.8966,-93.5973,1019.1,11111222 
TABS,ioos:station:wmo:42047:1,2013-04-06T14:00:00Z,27.8966,-93.5973,1019.46,11111222 
TABS,ioos:station:wmo:42047:1,2013-04-06T14:30:00Z,27.8966,-93.5973,1019.54,11111222 
TABS,ioos:station:wmo:42047:1,2013-04-06T15:00:00Z,27.8966,-93.5973,1019.91,11111222 
TABS,ioos:station:wmo:42047:1,2013-04-06T15:30:00Z,27.8966,-93.5973,1019.93,11111222 
TABS,ioos:station:wmo:42047:1,2013-04-06T16:00:00Z,27.8966,-93.5973,1019.93,11111222 
TABS,ioos:station:wmo:42047:1,2013-04-06T16:30:00Z,27.8966,-93.5973,1020.1,11111222 
TABS,ioos:station:wmo:42047:1,2013-04-06T17:00:00Z,27.8966,-93.5973,1020.08,11111222 
TABS,ioos:station:wmo:42047:1,2013-04-06T17:30:00Z,27.8966,-93.5973,1019.65,11111222 
TABS,ioos:station:wmo:42047:1,2013-04-06T18:00:00Z,27.8966,-93.5973,1019.39,11111222 
TABS,ioos:station:wmo:42047:1,2013-04-06T18:30:00Z,27.8966,-93.5973,1018.94,11111222 
TABS,ioos:station:wmo:42047:1,2013-04-06T19:00:00Z,27.8966,-93.5973,1018.46,11111222 
TABS,ioos:station:wmo:42047:1,2013-04-06T19:30:00Z,27.8966,-93.5973,1018.03,11111222 
TABS,ioos:station:wmo:42047:1,2013-04-06T20:00:00Z,27.8966,-93.5973,1017.59,11111222 
TABS,ioos:station:wmo:42047:1,2013-04-06T20:30:00Z,27.8966,-93.5973,1017.24,11111222 
TABS,ioos:station:wmo:42047:1,2013-04-06T21:00:00Z,27.8966,-93.5973,1016.78,11111222 
TABS,ioos:station:wmo:42047:1,2013-04-06T21:30:00Z,27.8966,-93.5973,1016.49,11111222 
TABS,ioos:station:wmo:42047:1,2013-04-06T22:00:00Z,27.8966,-93.5973,1016.35,11111222 
TABS,ioos:station:wmo:42047:1,2013-04-06T22:30:00Z,27.8966,-93.5973,1016.11,11111222 
TABS,ioos:station:wmo:42047:1,2013-04-06T23:00:00Z,27.8966,-93.5973,1016.11,11111222 
TABS,ioos:station:wmo:42047:1,2013-04-06T23:30:00Z,27.8966,-93.5973,1015.95,11111222 
TABS,ioos:station:wmo:42047:1,2013-04-07T00:00:00Z,27.8966,-93.5973,1016.23,11111222 
TABS,ioos:station:wmo:42047:1,2013-04-07T00:30:00Z,27.8966,-93.5973,1016.47,11111222 
TABS,ioos:station:wmo:42047:1,2013-04-07T01:00:00Z,27.8966,-93.5973,1016.24,11111222 
TABS,ioos:station:wmo:42047:1,2013-04-07T01:30:00Z,27.8966,-93.5973,1016.46,11111222 
TABS,ioos:station:wmo:42047:1,2013-04-07T02:00:00Z,27.8966,-93.5973,1016.65,11111222 
TABS,ioos:station:wmo:42047:1,2013-04-07T02:30:00Z,27.8966,-93.5973,1016.75,11111222 
TABS,ioos:station:wmo:42047:1,2013-04-07T03:00:00Z,27.8966,-93.5973,1016.65,11111222 
TABS,ioos:station:wmo:42047:1,2013-04-07T03:30:00Z,27.8966,-93.5973,1016.52,11111222 
TABS,ioos:station:wmo:42047:1,2013-04-07T04:00:00Z,27.8966,-93.5973,1016.44,11111222 
TABS,ioos:station:wmo:42047:1,2013-04-07T04:30:00Z,27.8966,-93.5973,1016.39,11111222 
TABS,ioos:station:wmo:42047:1,2013-04-07T05:00:00Z,27.8966,-93.5973,1016.33,11111222 
TABS,ioos:station:wmo:42047:1,2013-04-07T05:30:00Z,27.8966,-93.5973,1015.91,11111222 